Location: Cudham
(51.3000°N, 0.0667°E)
Time: 05:34:47
(UTC+00:00)

Okean 1 - Pass Details

Date: 19 May 2025
Orbit: 477 x 499 km, 82.5° (Epoch: 13 June)

Event Time Altitude Azimuth Distance (km) Brightness Sun altitude
Exits shadow 21:40:40 21° 162° (SSE) 1,162 4.4 -12.8°
Maximum altitude 21:42:53 49° 95° (E) 640 3.4 -13.0°
Drops below altitude 10° 21:46:27 10° 20° (NNE) 1,685 6.3 -13.3°
Sets 21:48:36 0° 15° (NNE) 2,567 7.4 -13.4°
